GPS BIIA-10 (PRN 32) 1 20959C 90103A 08204.70206018 .00000000 00000-0 00000-0 0 2045 2 20959 55.4863 296.2018 0141583 284.8331 202.1772 2.00546985 18 GPS BIIA-11 (PRN 24) 1 21552C 91047A 08204.70206018 .00000000 00000-0 00000-0 0 2043 2 21552 54.5789 234.2733 0077852 316.9646 19.7222 2.00564271 14 GPS BIIA-12 (PRN 25) 1 21890C 92009A 08204.70206018 -.00000000 00000-0 00000-0 0 2048 2 21890 55.3252 45.9023 0118317 288.2319 47.3076 2.00561060 19 GPS BIIA-14 (PRN 26) 1 22014C 92039A 08204.70206018 .00000000 00000-0 00000-0 0 2049 2 22014 56.9222 354.0413 0189850 53.8684 211.3957 2.00570591 10 GPS BIIA-15 (PRN 27) 1 22108C 92058A 08204.70206018 -.00000000 00000-0 00000-0 0 2045 2 22108 55.5885 47.9057 0212955 262.7928 46.8311 2.00554961 19 GPS BIIA-21 (PRN 09) 1 22700C 93042A 08204.70206018 -.00000000 00000-0 00000-0 0 2047 2 22700 55.7014 49.2739 0198808 81.4420 94.7081 2.00565050 15 GPS BIIA-22 (PRN 05) 1 22779C 93054A 08204.70206018 -.00000000 00000-0 00000-0 0 2046 2 22779 54.0365 106.0657 0088217 70.7513 33.5464 2.00576878 15 GPS BIIA-23 (PRN 04) 1 22877C 93068A 08204.70206018 .00000000 00000-0 00000-0 0 2049 2 22877 53.9956 231.8624 0080871 20.3721 54.1424 2.00576970 17 GPS BIIA-24 (PRN 06) 1 23027C 94016A 08204.70206018 -.00000000 00000-0 00000-0 0 2042 2 23027 53.4882 168.9506 0061114 267.0160 26.5784 2.00557248 12 GPS BIIA-25 (PRN 03) 1 23833C 96019A 08204.70206018 -.00000000 00000-0 00000-0 0 2042 2 23833 53.0554 165.2221 0106917 46.5348 236.5642 2.00561037 19 GPS BIIA-26 (PRN 10) 1 23953C 96041A 08204.70206018 .00000000 00000-0 00000-0 0 2049 2 23953 55.1695 292.7929 0078415 30.6675 307.6881 2.00563517 10 GPS BIIA-27 (PRN 30) 1 24320C 96056A 08204.70206018 -.00000000 00000-0 00000-0 0 2045 2 24320 54.3840 109.0426 0106368 79.0116 1.7229 2.00559126 19 GPS BIIR-02 (PRN 13) 1 24876C 97035A 08204.70206018 .00000000 00000-0 00000-0 0 2048 2 24876 57.0407 354.1270 0035749 86.4373 286.5962 2.00572554 12 GPS BIIA-28 (PRN 08) 1 25030C 97067A 08204.70206018 -.00000000 00000-0 00000-0 0 2047 2 25030 56.3974 54.4426 0103335 166.5813 115.5987 2.00557259 18 GPS BIIR-03 (PRN 11) 1 25933C 99055A 08204.70206018 .00000000 00000-0 00000-0 0 2047 2 25933 51.0469 220.2143 0080747 32.9142 141.3576 2.00566766 16 GPS BIIR-04 (PRN 20) 1 26360C 00025A 08204.70206018 .00000000 00000-0 00000-0 0 2041 2 26360 54.2303 290.2981 0033664 78.5577 31.3086 2.00548058 12 GPS BIIR-05 (PRN 28) 1 26407C 00040A 08204.70206018 -.00000000 00000-0 00000-0 0 2041 2 26407 55.2414 112.9257 0140566 240.5140 334.1686 2.00558497 19 GPS BIIR-06 (PRN 14) 1 26605C 00071A 08204.70206018 .00000000 00000-0 00000-0 0 2044 2 26605 56.6802 353.1168 0041099 236.4009 272.8507 2.00559410 10 GPS BIIR-07 (PRN 18) 1 26690C 01004A 08204.70206018 .00000000 00000-0 00000-0 0 2045 2 26690 54.2576 293.3715 0097869 218.3197 26.7605 2.00560009 13 GPS BIIR-08 (PRN 16) 1 27663C 03005A 08204.70206018 -.00000000 00000-0 00000-0 0 2040 2 27663 55.3473 112.4333 0048737 332.0975 20.7426 2.00567830 11 GPS BIIR-09 (PRN 21) 1 27704C 03010A 08204.70206018 .00000000 00000-0 00000-0 0 2041 2 27704 53.6244 232.7316 0142838 206.2646 94.7664 2.00559905 14 GPS BIIR-10 (PRN 22) 1 28129C 03058A 08204.70206018 .00000000 00000-0 00000-0 0 2045 2 28129 54.1227 293.7365 0052100 255.7301 314.8631 2.00564390 17 GPS BIIR-11 (PRN 19) 1 28190C 04009A 08204.70206018 .00000000 00000-0 00000-0 0 2040 2 28190 54.8564 175.3479 0049696 325.6017 286.0261 2.00559311 10 GPS BIIR-12 (PRN 23) 1 28361C 04023A 08204.70206018 .00000000 00000-0 00000-0 0 2046 2 28361 55.6557 351.5633 0056947 161.3169 242.2596 2.00559402 17 GPS BIIR-13 (PRN 02) 1 28474C 04045A 08204.70206018 .00000000 00000-0 00000-0 0 2045 2 28474 54.0362 230.7859 0086567 150.8919 255.3181 2.00553926 14 GPS BIIRM-1 (PRN 17) 1 28874C 05038A 08204.70206018 .00000000 00000-0 00000-0 0 2042 2 28874 54.9835 172.0857 0037652 205.0681 302.8528 2.00551081 11 GPS BIIRM-2 (PRN 31) 1 29486C 06042A 08204.70206018 -.00000000 00000-0 00000-0 0 2049 2 29486 55.4982 51.1456 0068486 289.5115 140.1801 2.00550837 15 GPS BIIRM-3 (PRN 12) 1 29601C 06052A 08204.70206018 -.00000000 00000-0 00000-0 0 2049 2 29601 55.2524 111.4902 0034844 306.1547 167.5971 2.00575996 10 GPS BIIRM-4 (PRN 15) 1 32260C 07047A 08204.70206018 .00000000 00000-0 00000-0 0 2048 2 32260 54.8662 350.6647 0009187 283.5585 331.5816 2.00563129 14 GPS BIIRM-5 (PRN 29) 1 32384C 07062A 08204.70206018 .00000000 00000-0 00000-0 0 2042 2 32384 54.9912 172.5536 0039208 279.6340 102.2448 2.00568624 19 GPS BIIRM-6 (PRN 07) 1 32711C 08012A 08204.70206018 -.00000000 00000-0 00000-0 0 2043 2 32711 55.1842 51.3516 0018677 157.4361 158.0597 2.00560129 19